Tracking 30995 objects as of 6-Jul-2025
HD Live streaming from Space Station
objects crossing your sky now

SL-16 DEB

Track SL-16 DEB now!
10-day predictions


NORAD ID: 31794
Int'l Code: 2007-029C
Perigee: 850.8 km
Apogee: 1,150.7 km
Inclination: 71.0 °
Period: 105.0 minutes
Semi major axis: 7371 km
RCS: 0.083 m2 (small)
Launch date: June 29, 2007
Source: Commonwealth of Independent States (former USSR) (CIS)
Launch site: TYURATAM MISSILE AND SPACE COMPLEX (TTMTR)

Note: This is SATELLITE DEBRIS
Your satellite tracking list
Your tracking list is empty




NASA's NSSDC Master Catalog

Two Line Element Set (TLE):
1 31794U 07029C   25186.60444786 -.00000013  00000-0  26584-4 0  9997
2 31794  71.0423 253.3764 0203420  80.8352  68.7698 13.71673702901900
Source of the keplerian elements: AFSPC